Hourly Weather Gogolevo

Today, 13 May, Thursday

Time Temperature Precipitation Wind Pressure Humidity
00:00 +14°C° 0 mm 2 mps 756 mmHg 80%
01:00 +13°C° 0 mm 3 mps 755 mmHg 82%
02:00 +13°C° 0 mm 3 mps 754 mmHg 85%
03:00 +13°C° 0 mm 3 mps 754 mmHg 86%
04:00 +13°C° 0 mm 4 mps 754 mmHg 87%
05:00 +13°C° 0 mm 4 mps 754 mmHg 88%
06:00 +13°C° 0 mm 5 mps 754 mmHg 80%
07:00 +14°C° 0 mm 5 mps 755 mmHg 72%
08:00 +14°C° 0 mm 5 mps 755 mmHg 64%
09:00 +15°C° 0 mm 5 mps 755 mmHg 59%
10:00 +16°C° 0 mm 5 mps 755 mmHg 54%
11:00 +17°C° 0 mm 5 mps 754 mmHg 49%
12:00 +17°C° 0 mm 5 mps 754 mmHg 51%
13:00 +17°C° 0 mm 5 mps 754 mmHg 52%
14:00 +17°C° 0 mm 4 mps 754 mmHg 54%
15:00 +17°C° 0.1 mm 4 mps 753 mmHg 57%
16:00 +17°C° 0.1 mm 4 mps 753 mmHg 60%
17:00 +17°C° 0.1 mm 4 mps 752 mmHg 64%
18:00 +16°C° 0.2 mm 3 mps 752 mmHg 72%
19:00 +13°C° 0.2 mm 3 mps 752 mmHg 80%
20:00 +13°C° 0.2 mm 2 mps 752 mmHg 89%
21:00 +12°C° 0.1 mm 2 mps 752 mmHg 91%
22:00 +12°C° 0.1 mm 2 mps 752 mmHg 94%
23:00 +10°C° 0.1 mm 2 mps 752 mmHg 96%

Tomorrow, 14 May, Friday

Time Temperature Precipitation Wind Pressure Humidity
00:00 +9°C° 0 mm 2 mps 752 mmHg 96%
01:00 +8°C° 0 mm 2 mps 752 mmHg 97%
02:00 +8°C° 0 mm 2 mps 752 mmHg 97%
03:00 +8°C° 0 mm 2 mps 751 mmHg 97%
04:00 +8°C° 0 mm 2 mps 751 mmHg 96%
05:00 +8°C° 0 mm 2 mps 751 mmHg 95%
06:00 +9°C° 0 mm 3 mps 751 mmHg 92%
07:00 +10°C° 0 mm 3 mps 751 mmHg 88%
08:00 +11°C° 0 mm 4 mps 751 mmHg 84%
09:00 +12°C° 0 mm 4 mps 751 mmHg 80%
10:00 +13°C° 0 mm 4 mps 751 mmHg 75%
11:00 +15°C° 0 mm 4 mps 751 mmHg 71%
12:00 +15°C° 0.2 mm 5 mps 751 mmHg 71%
13:00 +16°C° 0.2 mm 5 mps 750 mmHg 70%
14:00 +17°C° 0.2 mm 5 mps 750 mmHg 70%
15:00 +18°C° 0.2 mm 4 mps 750 mmHg 71%
16:00 +18°C° 0.2 mm 4 mps 750 mmHg 72%
17:00 +18°C° 0.2 mm 4 mps 750 mmHg 73%
18:00 +16°C° 0.1 mm 3 mps 750 mmHg 80%
19:00 +15°C° 0.1 mm 2 mps 750 mmHg 86%
20:00 +14°C° 0.1 mm 2 mps 750 mmHg 92%
21:00 +13°C° 0 mm 2 mps 749 mmHg 94%
22:00 +12°C° 0 mm 2 mps 749 mmHg 95%
23:00 +12°C° 0 mm 2 mps 749 mmHg 96%

Day after tomorrow, 15 May, Saturday

Time Temperature Precipitation Wind Pressure Humidity
00:00 +12°C° 0 mm 1 mps 749 mmHg 96%
01:00 +11°C° 0 mm 1 mps 749 mmHg 96%
02:00 +11°C° 0 mm 1 mps 749 mmHg 96%
03:00 +11°C° 0 mm 1 mps 748 mmHg 96%
04:00 +12°C° 0 mm 1 mps 748 mmHg 95%
05:00 +12°C° 0 mm 1 mps 748 mmHg 95%
06:00 +13°C° 0.1 mm 1 mps 748 mmHg 92%
07:00 +14°C° 0.1 mm 1 mps 748 mmHg 88%
08:00 +16°C° 0.1 mm 1 mps 748 mmHg 85%
09:00 +16°C° 0.5 mm 1 mps 748 mmHg 85%
10:00 +16°C° 0.5 mm 1 mps 748 mmHg 86%
11:00 +16°C° 0.5 mm 1 mps 748 mmHg 86%
12:00 +19°C° 0.2 mm 1 mps 748 mmHg 80%
13:00 +20°C° 0.2 mm 1 mps 748 mmHg 74%
14:00 +21°C° 0.2 mm 1 mps 747 mmHg 69%
15:00 +21°C° 0.4 mm 1 mps 747 mmHg 71%
16:00 +20°C° 0.4 mm 1 mps 747 mmHg 73%
17:00 +19°C° 0.4 mm 2 mps 747 mmHg 75%
18:00 +18°C° 0.6 mm 2 mps 747 mmHg 81%
19:00 +16°C° 0.6 mm 2 mps 747 mmHg 87%
20:00 +15°C° 0.6 mm 2 mps 747 mmHg 93%
21:00 +14°C° 0.1 mm 2 mps 748 mmHg 93%
22:00 +12°C° 0.1 mm 3 mps 748 mmHg 93%
23:00 +12°C° 0.1 mm 3 mps 748 mmHg 93%

16 May, Sunday

Time Temperature Precipitation Wind Pressure Humidity
00:00 +11°C° 0 mm 3 mps 749 mmHg 93%
01:00 +10°C° 0 mm 3 mps 749 mmHg 93%
02:00 +10°C° 0 mm 2 mps 749 mmHg 93%
03:00 +9°C° 0 mm 2 mps 750 mmHg 94%
04:00 +9°C° 0 mm 2 mps 750 mmHg 95%
05:00 +9°C° 0 mm 2 mps 750 mmHg 95%
06:00 +10°C° 0 mm 2 mps 751 mmHg 91%
07:00 +12°C° 0 mm 2 mps 751 mmHg 87%
08:00 +13°C° 0 mm 2 mps 751 mmHg 83%
09:00 +15°C° 0 mm 2 mps 752 mmHg 73%
10:00 +16°C° 0 mm 2 mps 752 mmHg 63%
11:00 +18°C° 0 mm 2 mps 752 mmHg 54%
12:00 +18°C° 0 mm 2 mps 752 mmHg 51%
13:00 +19°C° 0 mm 2 mps 752 mmHg 48%
14:00 +20°C° 0 mm 2 mps 752 mmHg 45%
15:00 +20°C° 0 mm 2 mps 752 mmHg 46%
16:00 +21°C° 0 mm 1 mps 752 mmHg 48%
17:00 +21°C° 0 mm 1 mps 752 mmHg 49%
18:00 +19°C° 0 mm 1 mps 753 mmHg 58%
19:00 +16°C° 0 mm 1 mps 753 mmHg 67%
20:00 +15°C° 0 mm 1 mps 753 mmHg 76%
21:00 +14°C° 0 mm 1 mps 753 mmHg 78%
22:00 +13°C° 0 mm 1 mps 753 mmHg 81%
23:00 +12°C° 0 mm 1 mps 753 mmHg 83%

17 May, Monday

Time Temperature Precipitation Wind Pressure Humidity
00:00 +12°C° 0 mm 1 mps 753 mmHg 84%
01:00 +10°C° 0 mm 2 mps 754 mmHg 85%
02:00 +10°C° 0 mm 2 mps 754 mmHg 86%
03:00 +10°C° 0 mm 2 mps 754 mmHg 86%
04:00 +12°C° 0 mm 2 mps 754 mmHg 85%
05:00 +12°C° 0 mm 2 mps 753 mmHg 84%
06:00 +14°C° 0 mm 2 mps 753 mmHg 78%
07:00 +14°C° 0 mm 3 mps 753 mmHg 72%
08:00 +17°C° 0 mm 3 mps 753 mmHg 66%
09:00 +19°C° 0 mm 4 mps 753 mmHg 62%
10:00 +20°C° 0 mm 4 mps 753 mmHg 58%
11:00 +21°C° 0 mm 4 mps 753 mmHg 54%
12:00 +22°C° 0 mm 4 mps 752 mmHg 56%
13:00 +22°C° 0 mm 4 mps 752 mmHg 57%
14:00 +22°C° 0 mm 4 mps 752 mmHg 58%
15:00 +22°C° 0 mm 4 mps 751 mmHg 59%
16:00 +22°C° 0 mm 5 mps 750 mmHg 59%
17:00 +21°C° 0 mm 5 mps 750 mmHg 60%
18:00 +21°C° 0 mm 6 mps 749 mmHg 63%
19:00 +20°C° 0 mm 6 mps 748 mmHg 67%
20:00 +19°C° 0 mm 6 mps 748 mmHg 71%
21:00 +19°C° 0.3 mm 6 mps 747 mmHg 76%
22:00 +17°C° 0.3 mm 5 mps 747 mmHg 81%
23:00 +17°C° 0.3 mm 5 mps 747 mmHg 86%

18 May, Tuesday

Time Temperature Precipitation Wind Pressure Humidity
00:00 +17°C° 0.6 mm 5 mps 746 mmHg 88%
01:00 +17°C° 0.6 mm 5 mps 746 mmHg 91%
02:00 +17°C° 0.6 mm 5 mps 746 mmHg 94%
03:00 +17°C° 0.4 mm 4 mps 746 mmHg 95%
04:00 +17°C° 0.4 mm 4 mps 746 mmHg 95%
05:00 +17°C° 0.4 mm 3 mps 746 mmHg 96%
06:00 +16°C° 0.7 mm 3 mps 747 mmHg 95%
07:00 +16°C° 0.7 mm 3 mps 747 mmHg 94%
08:00 +15°C° 0.7 mm 2 mps 748 mmHg 93%
09:00 +16°C° 0 mm 2 mps 748 mmHg 87%
10:00 +17°C° 0 mm 2 mps 749 mmHg 82%
11:00 +18°C° 0 mm 2 mps 749 mmHg 77%
12:00 +18°C° 0.1 mm 2 mps 749 mmHg 76%
13:00 +18°C° 0.1 mm 2 mps 750 mmHg 75%
14:00 +19°C° 0.1 mm 2 mps 750 mmHg 74%
15:00 +19°C° 0.1 mm 2 mps 750 mmHg 73%
16:00 +19°C° 0.1 mm 2 mps 750 mmHg 72%
17:00 +20°C° 0.1 mm 1 mps 750 mmHg 71%
18:00 +18°C° 0.1 mm 1 mps 750 mmHg 77%
19:00 +16°C° 0.1 mm 1 mps 751 mmHg 83%
20:00 +15°C° 0.1 mm 1 mps 751 mmHg 89%
21:00 +14°C° 0 mm 1 mps 751 mmHg 91%
22:00 +13°C° 0 mm 1 mps 751 mmHg 93%
23:00 +12°C° 0 mm 1 mps 751 mmHg 96%
Show more